Time,TemperatureF,DewpointF,PressureIn,WindDirection,WindDirectionDegrees,WindSpeedMPH,WindSpeedGustMPH,Humidity,HourlyPrecipIn,Conditions,Clouds,dailyrainin,SoftwareType,DateUTC
2013-02-10 00:00:00,35.0,32.0,-100.00,North,-999,-999.0,-999.0,86,0.00,,,-99.99,,2013-02-10 08:00:00,
2013-02-10 00:21:00,35.0,32.0,-100.00,North,-999,-999.0,-999.0,86,0.00,,,-99.99,,2013-02-10 08:21:00,
2013-02-10 00:32:00,35.0,32.0,-100.00,North,-999,-999.0,-999.0,86,0.00,,,-99.99,,2013-02-10 08:32:00,
2013-02-10 00:43:00,35.0,32.0,-100.00,North,-999,-999.0,-999.0,86,0.00,,,-99.99,,2013-02-10 08:43:00,
2013-02-10 00:52:00,35.0,32.0,-100.00,North,-999,-999.0,-999.0,86,0.00,,,-99.99,,2013-02-10 08:52:00,
2013-02-10 01:00:00,34.0,31.0,-100.00,North,-999,-999.0,-999.0,89,0.00,,,-99.99,,2013-02-10 09:00:00,
2013-02-10 01:21:00,34.0,31.0,-100.00,North,-999,-999.0,-999.0,89,0.00,,,-99.99,,2013-02-10 09:21:00,
2013-02-10 01:32:00,34.0,31.0,-100.00,North,-999,-999.0,-999.0,89,0.00,,,-99.99,,2013-02-10 09:32:00,
2013-02-10 01:42:00,34.0,31.0,-100.00,North,-999,-999.0,-999.0,89,0.00,,,-99.99,,2013-02-10 09:42:00,
2013-02-10 01:52:00,34.0,31.0,-100.00,North,-999,-999.0,-999.0,89,0.00,,,-99.99,,2013-02-10 09:52:00,
2013-02-10 02:00:00,32.0,30.0,-100.00,North,-999,-999.0,-999.0,91,0.00,,,-99.99,,2013-02-10 10:00:00,
2013-02-10 02:21:00,32.0,30.0,-100.00,North,-999,-999.0,-999.0,91,0.00,,,-99.99,,2013-02-10 10:21:00,
2013-02-10 02:32:00,32.0,30.0,-100.00,North,-999,-999.0,-999.0,91,0.00,,,-99.99,,2013-02-10 10:32:00,
2013-02-10 02:42:00,32.0,30.0,-100.00,North,-999,-999.0,-999.0,91,0.00,,,-99.99,,2013-02-10 10:42:00,
2013-02-10 02:52:00,32.0,30.0,-100.00,North,-999,-999.0,-999.0,91,0.00,,,-99.99,,2013-02-10 10:52:00,
2013-02-10 03:00:00,32.0,30.0,-100.00,North,-999,-999.0,-999.0,93,0.00,,,-99.99,,2013-02-10 11:00:00,
2013-02-10 03:22:00,32.0,30.0,-100.00,North,-999,-999.0,-999.0,93,0.00,,,-99.99,,2013-02-10 11:22:00,
2013-02-10 03:32:00,32.0,30.0,-100.00,North,-999,-999.0,-999.0,93,0.00,,,-99.99,,2013-02-10 11:32:00,
2013-02-10 03:42:00,32.0,30.0,-100.00,North,-999,-999.0,-999.0,93,0.00,,,-99.99,,2013-02-10 11:42:00,
2013-02-10 03:52:00,32.0,30.0,-100.00,North,-999,-999.0,-999.0,93,0.00,,,-99.99,,2013-02-10 11:52:00,
2013-02-10 04:00:00,32.0,30.0,-100.00,North,-999,-999.0,-999.0,94,0.00,,,-99.99,,2013-02-10 12:00:00,
2013-02-10 04:22:00,32.0,30.0,-100.00,North,-999,-999.0,-999.0,94,0.00,,,-99.99,,2013-02-10 12:22:00,
2013-02-10 04:32:00,32.0,30.0,-100.00,North,-999,-999.0,-999.0,94,0.00,,,-99.99,,2013-02-10 12:32:00,
2013-02-10 04:42:00,32.0,30.0,-100.00,North,-999,-999.0,-999.0,94,0.00,,,-99.99,,2013-02-10 12:42:00,
2013-02-10 04:52:00,32.0,30.0,-100.00,North,-999,-999.0,-999.0,94,0.00,,,-99.99,,2013-02-10 12:52:00,
2013-02-10 05:00:00,30.0,28.0,-100.00,North,-999,-999.0,-999.0,94,0.00,,,-99.99,,2013-02-10 13:00:00,
2013-02-10 05:21:00,30.0,28.0,-100.00,North,-999,-999.0,-999.0,94,0.00,,,-99.99,,2013-02-10 13:21:00,
2013-02-10 05:32:00,30.0,28.0,-100.00,North,-999,-999.0,-999.0,94,0.00,,,-99.99,,2013-02-10 13:32:00,
2013-02-10 05:42:00,30.0,28.0,-100.00,North,-999,-999.0,-999.0,94,0.00,,,-99.99,,2013-02-10 13:42:00,
2013-02-10 05:52:00,30.0,28.0,-100.00,North,-999,-999.0,-999.0,94,0.00,,,-99.99,,2013-02-10 13:52:00,
2013-02-10 06:00:00,30.0,29.0,-100.00,North,-999,-999.0,-999.0,95,0.00,,,-99.99,,2013-02-10 14:00:00,
2013-02-10 06:22:00,30.0,29.0,-100.00,North,-999,-999.0,-999.0,95,0.00,,,-99.99,,2013-02-10 14:22:00,
2013-02-10 06:32:00,30.0,29.0,-100.00,North,-999,-999.0,-999.0,95,0.00,,,-99.99,,2013-02-10 14:32:00,
2013-02-10 06:42:00,30.0,29.0,-100.00,North,-999,-999.0,-999.0,95,0.00,,,-99.99,,2013-02-10 14:42:00,
2013-02-10 06:52:00,30.0,29.0,-100.00,North,-999,-999.0,-999.0,95,0.00,,,-99.99,,2013-02-10 14:52:00,
2013-02-10 07:00:00,29.0,28.0,-100.00,North,-999,-999.0,-999.0,95,0.00,,,-99.99,,2013-02-10 15:00:00,
2013-02-10 07:22:00,29.0,28.0,-100.00,North,-999,-999.0,-999.0,95,0.00,,,-99.99,,2013-02-10 15:22:00,
2013-02-10 07:32:00,29.0,28.0,-100.00,North,-999,-999.0,-999.0,95,0.00,,,-99.99,,2013-02-10 15:32:00,
2013-02-10 07:42:00,29.0,28.0,-100.00,North,-999,-999.0,-999.0,95,0.00,,,-99.99,,2013-02-10 15:42:00,
2013-02-10 07:52:00,29.0,28.0,-100.00,North,-999,-999.0,-999.0,95,0.00,,,-99.99,,2013-02-10 15:52:00,
2013-02-10 08:00:00,32.0,31.0,-100.00,North,-999,-999.0,-999.0,95,0.00,,,-99.99,,2013-02-10 16:00:00,
2013-02-10 08:22:00,32.0,31.0,-100.00,North,-999,-999.0,-999.0,95,0.00,,,-99.99,,2013-02-10 16:22:00,
2013-02-10 08:32:00,32.0,31.0,-100.00,North,-999,-999.0,-999.0,95,0.00,,,-99.99,,2013-02-10 16:32:00,
2013-02-10 08:42:00,32.0,31.0,-100.00,North,-999,-999.0,-999.0,95,0.00,,,-99.99,,2013-02-10 16:42:00,
2013-02-10 08:52:00,32.0,31.0,-100.00,North,-999,-999.0,-999.0,95,0.00,,,-99.99,,2013-02-10 16:52:00,
2013-02-10 09:00:00,38.0,34.0,-100.00,North,-999,-999.0,-999.0,82,0.00,,,-99.99,,2013-02-10 17:00:00,
2013-02-10 09:22:00,38.0,34.0,-100.00,North,-999,-999.0,-999.0,82,0.00,,,-99.99,,2013-02-10 17:22:00,
2013-02-10 09:32:00,38.0,34.0,-100.00,North,-999,-999.0,-999.0,82,0.00,,,-99.99,,2013-02-10 17:32:00,
2013-02-10 09:42:00,38.0,34.0,-100.00,North,-999,-999.0,-999.0,82,0.00,,,-99.99,,2013-02-10 17:42:00,
2013-02-10 09:52:00,38.0,34.0,-100.00,North,-999,-999.0,-999.0,82,0.00,,,-99.99,,2013-02-10 17:52:00,
2013-02-10 10:00:00,43.0,36.0,-100.00,North,-999,-999.0,-999.0,76,0.00,,,-99.99,,2013-02-10 18:00:00,
2013-02-10 10:22:00,43.0,36.0,-100.00,North,-999,-999.0,-999.0,76,0.00,,,-99.99,,2013-02-10 18:22:00,
2013-02-10 10:32:00,43.0,36.0,-100.00,North,-999,-999.0,-999.0,76,0.00,,,-99.99,,2013-02-10 18:32:00,
2013-02-10 10:42:00,43.0,36.0,-100.00,North,-999,-999.0,-999.0,76,0.00,,,-99.99,,2013-02-10 18:42:00,
2013-02-10 10:52:00,43.0,36.0,-100.00,North,-999,-999.0,-999.0,76,0.00,,,-99.99,,2013-02-10 18:52:00,
2013-02-10 11:00:00,52.0,40.0,-100.00,North,-999,-999.0,-999.0,65,0.00,,,-99.99,,2013-02-10 19:00:00,
2013-02-10 11:22:00,52.0,40.0,-100.00,North,-999,-999.0,-999.0,65,0.00,,,-99.99,,2013-02-10 19:22:00,
2013-02-10 11:32:00,52.0,40.0,-100.00,North,-999,-999.0,-999.0,65,0.00,,,-99.99,,2013-02-10 19:32:00,
2013-02-10 11:43:00,52.0,40.0,-100.00,North,-999,-999.0,-999.0,65,0.00,,,-99.99,,2013-02-10 19:43:00,
2013-02-10 11:52:00,52.0,40.0,-100.00,North,-999,-999.0,-999.0,65,0.00,,,-99.99,,2013-02-10 19:52:00,
2013-02-10 12:00:00,57.0,39.0,-100.00,North,-999,-999.0,-999.0,50,0.00,,,-99.99,,2013-02-10 20:00:00,
2013-02-10 12:22:00,57.0,39.0,-100.00,North,-999,-999.0,-999.0,50,0.00,,,-99.99,,2013-02-10 20:22:00,
2013-02-10 12:32:00,57.0,39.0,-100.00,North,-999,-999.0,-999.0,50,0.00,,,-99.99,,2013-02-10 20:32:00,
2013-02-10 12:42:00,57.0,39.0,-100.00,North,-999,-999.0,-999.0,50,0.00,,,-99.99,,2013-02-10 20:42:00,
2013-02-10 12:52:00,57.0,39.0,-100.00,North,-999,-999.0,-999.0,50,0.00,,,-99.99,,2013-02-10 20:52:00,
2013-02-10 13:00:00,64.0,39.0,-100.00,North,-999,-999.0,-999.0,39,0.00,,,-99.99,,2013-02-10 21:00:00,
2013-02-10 13:22:00,64.0,39.0,-100.00,North,-999,-999.0,-999.0,39,0.00,,,-99.99,,2013-02-10 21:22:00,
2013-02-10 13:32:00,64.0,39.0,-100.00,North,-999,-999.0,-999.0,39,0.00,,,-99.99,,2013-02-10 21:32:00,
2013-02-10 13:42:00,64.0,39.0,-100.00,North,-999,-999.0,-999.0,39,0.00,,,-99.99,,2013-02-10 21:42:00,
2013-02-10 13:52:00,64.0,39.0,-100.00,North,-999,-999.0,-999.0,39,0.00,,,-99.99,,2013-02-10 21:52:00,
2013-02-10 14:00:00,65.0,38.0,-100.00,North,-999,-999.0,-999.0,36,0.00,,,-99.99,,2013-02-10 22:00:00,
2013-02-10 14:22:00,65.0,38.0,-100.00,North,-999,-999.0,-999.0,36,0.00,,,-99.99,,2013-02-10 22:22:00,
2013-02-10 14:32:00,65.0,38.0,-100.00,North,-999,-999.0,-999.0,36,0.00,,,-99.99,,2013-02-10 22:32:00,
2013-02-10 14:42:00,65.0,38.0,-100.00,North,-999,-999.0,-999.0,36,0.00,,,-99.99,,2013-02-10 22:42:00,
2013-02-10 14:52:00,65.0,38.0,-100.00,North,-999,-999.0,-999.0,36,0.00,,,-99.99,,2013-02-10 22:52:00,
2013-02-10 15:00:00,65.0,37.0,-100.00,North,-999,-999.0,-999.0,35,0.00,,,-99.99,,2013-02-10 23:00:00,
2013-02-10 15:22:00,65.0,37.0,-100.00,North,-999,-999.0,-999.0,35,0.00,,,-99.99,,2013-02-10 23:22:00,
2013-02-10 15:32:00,65.0,37.0,-100.00,North,-999,-999.0,-999.0,35,0.00,,,-99.99,,2013-02-10 23:32:00,
2013-02-10 15:42:00,65.0,37.0,-100.00,North,-999,-999.0,-999.0,35,0.00,,,-99.99,,2013-02-10 23:42:00,
2013-02-10 15:52:00,65.0,37.0,-100.00,North,-999,-999.0,-999.0,35,0.00,,,-99.99,,2013-02-10 23:52:00,
2013-02-10 16:00:00,64.0,37.0,-100.00,North,-999,-999.0,-999.0,37,0.00,,,-99.99,,2013-02-11 00:00:00,
2013-02-10 16:22:00,64.0,37.0,-100.00,North,-999,-999.0,-999.0,37,0.00,,,-99.99,,2013-02-11 00:22:00,
2013-02-10 16:32:00,64.0,37.0,-100.00,North,-999,-999.0,-999.0,37,0.00,,,-99.99,,2013-02-11 00:32:00,
2013-02-10 16:42:00,64.0,37.0,-100.00,North,-999,-999.0,-999.0,37,0.00,,,-99.99,,2013-02-11 00:42:00,
2013-02-10 16:52:00,64.0,37.0,-100.00,North,-999,-999.0,-999.0,37,0.00,,,-99.99,,2013-02-11 00:52:00,
2013-02-10 17:00:00,62.0,38.0,-100.00,North,-999,-999.0,-999.0,42,0.00,,,-99.99,,2013-02-11 01:00:00,
2013-02-10 17:21:00,62.0,38.0,-100.00,North,-999,-999.0,-999.0,42,0.00,,,-99.99,,2013-02-11 01:21:00,
2013-02-10 17:32:00,62.0,38.0,-100.00,North,-999,-999.0,-999.0,42,0.00,,,-99.99,,2013-02-11 01:32:00,
2013-02-10 17:42:00,62.0,38.0,-100.00,North,-999,-999.0,-999.0,42,0.00,,,-99.99,,2013-02-11 01:42:00,
2013-02-10 17:52:00,62.0,38.0,-100.00,North,-999,-999.0,-999.0,42,0.00,,,-99.99,,2013-02-11 01:52:00,
2013-02-10 18:00:00,56.0,38.0,-100.00,North,-999,-999.0,-999.0,50,0.00,,,-99.99,,2013-02-11 02:00:00,
2013-02-10 18:21:00,56.0,38.0,-100.00,North,-999,-999.0,-999.0,50,0.00,,,-99.99,,2013-02-11 02:21:00,
2013-02-10 18:32:00,56.0,38.0,-100.00,North,-999,-999.0,-999.0,50,0.00,,,-99.99,,2013-02-11 02:32:00,
2013-02-10 18:42:00,56.0,38.0,-100.00,North,-999,-999.0,-999.0,50,0.00,,,-99.99,,2013-02-11 02:42:00,
2013-02-10 18:52:00,56.0,38.0,-100.00,North,-999,-999.0,-999.0,50,0.00,,,-99.99,,2013-02-11 02:52:00,
2013-02-10 19:00:00,52.0,38.0,-100.00,North,-999,-999.0,-999.0,60,0.00,,,-99.99,,2013-02-11 03:00:00,
2013-02-10 19:21:00,52.0,38.0,-100.00,North,-999,-999.0,-999.0,60,0.00,,,-99.99,,2013-02-11 03:21:00,
2013-02-10 19:32:00,52.0,38.0,-100.00,North,-999,-999.0,-999.0,60,0.00,,,-99.99,,2013-02-11 03:32:00,
2013-02-10 19:42:00,52.0,38.0,-100.00,North,-999,-999.0,-999.0,60,0.00,,,-99.99,,2013-02-11 03:42:00,
2013-02-10 19:52:00,52.0,38.0,-100.00,North,-999,-999.0,-999.0,60,0.00,,,-99.99,,2013-02-11 03:52:00,
2013-02-10 20:00:00,48.0,39.0,-100.00,North,-999,-999.0,-999.0,70,0.00,,,-99.99,,2013-02-11 04:00:00,
2013-02-10 20:22:00,48.0,39.0,-100.00,North,-999,-999.0,-999.0,70,0.00,,,-99.99,,2013-02-11 04:22:00,
2013-02-10 20:32:00,48.0,39.0,-100.00,North,-999,-999.0,-999.0,70,0.00,,,-99.99,,2013-02-11 04:32:00,
2013-02-10 20:42:00,48.0,39.0,-100.00,North,-999,-999.0,-999.0,70,0.00,,,-99.99,,2013-02-11 04:42:00,
2013-02-10 20:52:00,48.0,39.0,-100.00,North,-999,-999.0,-999.0,70,0.00,,,-99.99,,2013-02-11 04:52:00,
2013-02-10 21:00:00,44.0,39.0,-100.00,North,-999,-999.0,-999.0,80,0.00,,,-99.99,,2013-02-11 05:00:00,
2013-02-10 21:22:00,44.0,39.0,-100.00,North,-999,-999.0,-999.0,80,0.00,,,-99.99,,2013-02-11 05:22:00,
2013-02-10 21:32:00,44.0,39.0,-100.00,North,-999,-999.0,-999.0,80,0.00,,,-99.99,,2013-02-11 05:32:00,
2013-02-10 21:42:00,44.0,39.0,-100.00,North,-999,-999.0,-999.0,80,0.00,,,-99.99,,2013-02-11 05:42:00,
2013-02-10 21:52:00,44.0,39.0,-100.00,North,-999,-999.0,-999.0,80,0.00,,,-99.99,,2013-02-11 05:52:00,
2013-02-10 22:00:00,41.0,36.0,-100.00,North,-999,-999.0,-999.0,84,0.00,,,-99.99,,2013-02-11 06:00:00,
2013-02-10 22:22:00,41.0,36.0,-100.00,North,-999,-999.0,-999.0,84,0.00,,,-99.99,,2013-02-11 06:22:00,
2013-02-10 22:32:00,41.0,36.0,-100.00,North,-999,-999.0,-999.0,84,0.00,,,-99.99,,2013-02-11 06:32:00,
2013-02-10 22:42:00,41.0,36.0,-100.00,North,-999,-999.0,-999.0,84,0.00,,,-99.99,,2013-02-11 06:42:00,
2013-02-10 22:52:00,41.0,36.0,-100.00,North,-999,-999.0,-999.0,84,0.00,,,-99.99,,2013-02-11 06:52:00,
2013-02-10 23:00:00,41.0,37.0,-100.00,North,-999,-999.0,-999.0,84,0.00,,,-99.99,,2013-02-11 07:00:00,
2013-02-10 23:22:00,41.0,37.0,-100.00,North,-999,-999.0,-999.0,84,0.00,,,-99.99,,2013-02-11 07:22:00,
2013-02-10 23:32:00,41.0,37.0,-100.00,North,-999,-999.0,-999.0,84,0.00,,,-99.99,,2013-02-11 07:32:00,
2013-02-10 23:42:00,41.0,37.0,-100.00,North,-999,-999.0,-999.0,84,0.00,,,-99.99,,2013-02-11 07:42:00,
2013-02-10 23:52:00,41.0,37.0,-100.00,North,-999,-999.0,-999.0,84,0.00,,,-99.99,,2013-02-11 07:52:00,